Weather History for KHOP - July, 2013

Change the Weather History Date:

Wednesday, July 31, 2013

  Actual Average Record
Temperature  
Mean Temperature 76 °F -  
Max Temperature 85 °F 86 °F 100 °F (1999)
Min Temperature 68 °F 67 °F 58 °F (2014)
Cooling Degree Days 11    
Growing Degree Days 26 (Base 50)    
Moisture  
Dew Point 73 °F    
Average Humidity 92    
Maximum Humidity 100    
Minimum Humidity 69    
Precipitation  
Precipitation 0.01 in - - ()
Sea Level Pressure  
Sea Level Pressure 30.00 in    
Wind  
Wind Speed 6 mph (ENE)    
Max Wind Speed 12 mph    
Max Gust Speed -    
Visibility 9 miles    
Events Rain    
Averages and records for this station are not official NWS values.
T = Trace of Precipitation, MM = Missing Value Source: NWS Daily Summary

Daily Weather History Graph

Daily Weather History Graph

Search for Another Location

Airport or City:

Trip Planner

Search our weather history database for the weather conditions in past years. The results will help you decide how hot, cold, wet, or windy it might be!

Date:

Astronomy

Jul. 31, 2013 Rise Set
Actual Time 5:55 AM CDT 7:56 PM CDT
Civil Twilight 5:26 AM CDT 8:25 PM CDT
Nautical Twilight 4:51 AM CDT 9:00 PM CDT
Astronomical Twilight 4:14 AM CDT 9:37 PM CDT
Moon 12:50 AM CDT (7/31) 3:12 PM CDT (7/31)
Length of Visible Light 14h 58m
Length of Day
14h 01m
Waning Crescent, 31% of the Moon is Illuminated
Jul 31
Waning Crescent
Aug 6
New
Aug 14
First Quarter
Aug 20
Full
Aug 28
Last Quarter

Hourly Weather History & Observations

Time (CDT) Temp. Heat Index Dew Point Humidity Pressure Visibility Wind Dir Wind Speed Gust Speed Precip Events Conditions
12:58 AM 70.7 °F - 70.7 °F 100% 30.06 in 10.0 mi SE 11.5 mph - N/A   Mostly Cloudy
1:44 AM 69.8 °F - 69.8 °F 100% 30.06 in 10.0 mi ESE 5.8 mph - N/A   Light Drizzle
1:54 AM 69.8 °F - 69.8 °F 100% 30.06 in 10.0 mi SE 5.8 mph - N/A   Mostly Cloudy
1:58 AM 70.2 °F - 70.2 °F 100% 30.04 in 10.0 mi ESE 5.8 mph - 0.00 in   Mostly Cloudy
2:58 AM 70.0 °F - 70.0 °F 100% 30.04 in 10.0 mi SE 6.9 mph - N/A   Overcast
3:26 AM 69.8 °F - 69.8 °F 100% 30.04 in 10.0 mi SE 5.8 mph - N/A   Overcast
3:38 AM 69.8 °F - 69.8 °F 100% 30.04 in 10.0 mi SE 6.9 mph - N/A   Overcast
3:58 AM 69.6 °F - 69.6 °F 100% 30.03 in 10.0 mi SE 6.9 mph - N/A   Overcast
4:58 AM 69.8 °F - 69.8 °F 100% 30.01 in 10.0 mi SSE 5.8 mph - N/A   Overcast
5:27 AM 69.8 °F - 69.8 °F 100% 30.03 in 10.0 mi SE 6.9 mph - N/A   Overcast
5:58 AM 69.6 °F - 69.6 °F 100% 30.04 in 10.0 mi SE 4.6 mph - N/A   Mostly Cloudy
6:07 AM 69.8 °F - 69.8 °F 100% 30.04 in 10.0 mi SE 3.5 mph - N/A   Mostly Cloudy
6:13 AM 69.8 °F - 69.8 °F 100% 30.04 in 10.0 mi ESE 4.6 mph - N/A   Mostly Cloudy
6:19 AM 69.8 °F - 69.8 °F 100% 30.04 in 10.0 mi SE 3.5 mph - N/A   Mostly Cloudy
6:58 AM 70.2 °F - 70.2 °F 100% 30.04 in 10.0 mi Variable 2.3 mph - N/A   Overcast
7:06 AM 69.8 °F - 69.8 °F 100% 30.04 in 10.0 mi Variable 3.5 mph - N/A   Overcast
7:17 AM 69.8 °F - 69.8 °F 100% 30.04 in 10.0 mi East 3.5 mph - N/A   Overcast
7:36 AM 71.6 °F - 71.6 °F 100% 30.04 in 10.0 mi ESE 4.6 mph - N/A   Overcast
7:48 AM 71.6 °F - 71.6 °F 100% 30.04 in 10.0 mi SE 4.6 mph - N/A   Overcast
7:53 AM 71.6 °F - 71.6 °F 100% 30.04 in 10.0 mi SE 4.6 mph - N/A   Overcast
7:58 AM 71.2 °F - 71.2 °F 100% 30.04 in 10.0 mi SE 6.9 mph - N/A   Mostly Cloudy
8:07 AM 71.6 °F - 71.6 °F 100% 30.04 in 10.0 mi SSE 4.6 mph - N/A   Mostly Cloudy
8:13 AM 73.4 °F - 73.4 °F 100% 30.04 in 10.0 mi SSE 4.6 mph - N/A   Mostly Cloudy
8:46 AM 75.2 °F - 73.4 °F 94% 30.03 in 10.0 mi Variable 5.8 mph - N/A   Scattered Clouds
8:56 AM 77.0 °F - 73.4 °F 89% 30.03 in 10.0 mi Variable 6.9 mph - N/A   Mostly Cloudy
8:58 AM 76.5 °F - 73.6 °F 91% 30.02 in 10.0 mi South 8.1 mph - N/A   Mostly Cloudy
9:46 AM 77.0 °F - 75.2 °F 94% 30.03 in 10.0 mi Variable 3.5 mph - N/A   Overcast
9:58 AM 77.9 °F - 74.8 °F 90% 30.02 in 10.0 mi South 4.6 mph - N/A   Overcast
10:58 AM 78.8 °F - 74.8 °F 88% 30.02 in 10.0 mi SW 4.6 mph - N/A   Overcast
11:58 AM 78.4 °F - 75.7 °F 91% 30.01 in 10.0 mi SSW 6.9 mph - N/A   Overcast
12:48 PM 82.4 °F 89.5 °F 75.2 °F 79% 30.01 in 10.0 mi South 4.6 mph - N/A   Mostly Cloudy
12:53 PM 82.4 °F 89.5 °F 75.2 °F 79% 30.01 in 10.0 mi Variable 4.6 mph - N/A   Mostly Cloudy
12:58 PM 81.9 °F 88.9 °F 75.7 °F 82% 30.00 in 10.0 mi SW 4.6 mph - N/A   Mostly Cloudy
1:06 PM 80.6 °F 86.2 °F 75.2 °F 84% 30.00 in 10.0 mi West 5.8 mph - N/A   Mostly Cloudy
1:32 PM 82.4 °F 90.9 °F 77.0 °F 84% 29.99 in 10.0 mi NW 6.9 mph - N/A   Light Drizzle
1:42 PM 80.6 °F 87.1 °F 77.0 °F 89% 29.99 in 9.0 mi Variable 3.5 mph - N/A Rain Light Rain
1:48 PM 80.6 °F 87.1 °F 77.0 °F 89% 29.98 in 10.0 mi North 3.5 mph - N/A   Mostly Cloudy
1:54 PM 80.6 °F 86.2 °F 75.2 °F 84% 29.98 in 10.0 mi North 4.6 mph - N/A   Mostly Cloudy
1:58 PM 80.6 °F 86.6 °F 76.1 °F 86% 29.97 in 10.0 mi Variable 4.6 mph - 0.01 in   Mostly Cloudy
2:01 PM 80.6 °F 86.2 °F 75.2 °F 84% 29.98 in 10.0 mi Variable 5.8 mph - N/A   Light Drizzle
2:02 PM 80.6 °F 86.2 °F 75.2 °F 84% 29.98 in 10.0 mi North 5.8 mph - N/A   Light Drizzle
2:11 PM 80.6 °F 87.1 °F 77.0 °F 89% 29.98 in 10.0 mi NNW 4.6 mph - N/A   Light Drizzle
2:13 PM 80.6 °F 87.1 °F 77.0 °F 89% 29.98 in 10.0 mi NNW 3.5 mph - N/A   Mostly Cloudy
2:15 PM 80.6 °F 87.1 °F 77.0 °F 89% 29.98 in 10.0 mi Variable 2.3 mph - N/A   Mostly Cloudy
2:27 PM 80.6 °F 86.2 °F 75.2 °F 84% 29.98 in 10.0 mi Variable 1.2 mph - N/A   Mostly Cloudy
2:29 PM 80.6 °F 87.1 °F 77.0 °F 89% 29.98 in 10.0 mi Variable 1.2 mph - N/A   Mostly Cloudy
2:30 PM 80.6 °F 87.1 °F 77.0 °F 89% 29.98 in 10.0 mi Variable 2.3 mph - N/A   Mostly Cloudy
2:41 PM 82.4 °F 90.9 °F 77.0 °F 84% 29.98 in 10.0 mi North 6.9 mph - N/A   Mostly Cloudy
2:44 PM 80.6 °F 86.2 °F 75.2 °F 84% 29.98 in 10.0 mi North 5.8 mph - N/A   Mostly Cloudy
2:45 PM 80.6 °F 86.2 °F 75.2 °F 84% 29.98 in 10.0 mi North 4.6 mph - N/A   Mostly Cloudy
2:46 PM 80.6 °F 86.2 °F 75.2 °F 84% 29.98 in 10.0 mi North 3.5 mph - N/A   Overcast
2:48 PM 80.6 °F 87.1 °F 77.0 °F 89% 29.98 in 10.0 mi NNW 3.5 mph - N/A   Mostly Cloudy
2:49 PM 80.6 °F 87.1 °F 77.0 °F 89% 29.98 in 10.0 mi NNW 4.6 mph - N/A   Overcast
2:53 PM 80.6 °F 87.1 °F 77.0 °F 89% 29.98 in 10.0 mi NW 8.1 mph - N/A   Mostly Cloudy
2:58 PM 81.3 °F 88.5 °F 76.6 °F 86% 29.96 in 10.0 mi WNW 6.9 mph - 0.00 in   Mostly Cloudy
3:00 PM 82.4 °F 89.5 °F 75.2 °F 79% 29.97 in 10.0 mi WNW 5.8 mph - N/A   Scattered Clouds
3:58 PM 83.5 °F 90.6 °F 74.3 °F 74% 29.94 in 10.0 mi North 5.8 mph - N/A   Scattered Clouds
4:14 PM 84.2 °F 92.3 °F 75.2 °F 74% 29.95 in 10.0 mi NNW 8.1 mph - N/A   Mostly Cloudy
4:21 PM 84.2 °F 90.9 °F 73.4 °F 70% 29.95 in 10.0 mi NW 8.1 mph - N/A   Scattered Clouds
4:58 PM 84.0 °F 90.5 °F 73.2 °F 70% 29.93 in 10.0 mi North 10.4 mph - N/A   Scattered Clouds
5:58 PM 83.5 °F 89.1 °F 72.5 °F 69% 29.95 in 10.0 mi North 10.4 mph - N/A   Partly Cloudy
6:58 PM 80.4 °F 84.5 °F 72.1 °F 76% 29.95 in 10.0 mi North 8.1 mph - N/A   Partly Cloudy
7:58 PM 76.6 °F - 72.3 °F 86% 29.97 in 10.0 mi North 3.5 mph - N/A   Scattered Clouds
8:58 PM 74.8 °F - 73.6 °F 96% 29.97 in 10.0 mi NNW 2.3 mph - N/A   Partly Cloudy
9:58 PM 72.0 °F - 72.0 °F 100% 29.98 in 10.0 mi NE 2.3 mph - N/A   Clear
10:58 PM 72.1 °F - 72.1 °F 100% 29.99 in 10.0 mi Calm Calm - N/A   Clear
11:45 PM 69.8 °F - 69.8 °F 100% 30.00 in 2.5 mi ENE 2.3 mph - N/A   Clear
11:46 PM 69.8 °F - 69.8 °F 100% 30.00 in 2.0 mi ENE 2.3 mph - N/A   Clear
11:47 PM 69.8 °F - 69.8 °F 100% 30.00 in 1.5 mi ENE 2.3 mph - N/A   Clear
11:48 PM 68.0 °F - 68.0 °F 100% 30.00 in 1.2 mi ENE 1.2 mph - N/A   Clear
11:49 PM 68.0 °F - 68.0 °F 100% 30.01 in 1.0 mi ENE 1.2 mph - N/A   Clear
11:56 PM 69.8 °F - 69.8 °F 100% 30.01 in 1.2 mi ENE 1.2 mph - N/A   Clear
11:57 PM 69.8 °F - 69.8 °F 100% 30.01 in 1.5 mi NE 1.2 mph - N/A   Clear
11:58 PM 69.8 °F - 69.8 °F 100% 30.00 in 1.8 mi NE 2.3 mph - N/A   Clear
11:59 PM 69.8 °F - 69.8 °F 100% 30.01 in 2.0 mi NE 2.3 mph - N/A   Clear